Temperature
21 19 17 17 18 18 19 19 17 13 12 12 12 9 8 8 8 8 8 7 6 5 4 3 2 1 -0 -1 -2 -2 -3 -3 -4 -4 -4 -4 -4 -4 -5 -5 -5 -6 -6 -6
19 16 17 18 18 19 19 19 17 12 11 12 11 10 9 8 8 7 7 7 6 5 4 3 2 0 -1 -2 -3 -3 -4 -4 -5 -5 -5 -6 -6 -6 -6 -6 -6 -7 -7 -7
17 16 18 19 18 18 19 17 15 15 11 11 11 10 9 8 8 7 7 7 6 5 4 2 1 -0 -2 -3 -3 -4 -4 -5 -5 -6 -6 -6 -6 -6 -6 -6 -7 -7 -8 -8
17 17 18 18 16 16 17 14 14 14 11 12 10 10 9 7 7 7 7 7 5 4 3 2 1 -1 -2 -3 -4 -4 -5 -5 -6 -6 -7 -7 -8 -8 -8 -8 -8 -8 -8 -9
16 16 16 16 15 15 15 14 14 14 13 12 11 11 10 8 7 7 7 6 5 4 3 1 -0 -1 -3 -4 -4 -5 -5 -6 -6 -7 -7 -8 -8 -9 -9 -9 -9 -9 -9 -10
15 15 15 15 15 15 14 14 14 13 13 13 14 12 10 8 8 7 6 6 5 4 2 1 -1 -2 -3 -4 -5 -5 -6 -6 -7 -7 -8 -8 -9 -9 -9 -9 -9 -10 -10 -10
16 16 15 15 15 16 15 14 14 14 13 14 14 14 8 7 6 6 6 5 4 3 2 0 -1 -2 -3 -4 -5 -5 -6 -6 -7 -8 -8 -9 -9 -10 -10 -10 -11 -11 -11 -11
18 16 14 14 13 13 15 15 13 13 14 14 14 12 6 6 6 6 6 5 4 2 1 -1 -2 -3 -4 -5 -5 -5 -6 -7 -7 -8 -8 -9 -10 -10 -11 -11 -11 -11 -11 -12
16 15 13 13 13 13 14 14 13 12 13 13 14 6 6 6 6 6 6 4 3 2 0 -1 -2 -3 -4 -5 -5 -6 -6 -7 -8 -8 -9 -10 -10 -11 -11 -11 -11 -12 -12 -12
14 16 14 13 12 12 14 13 12 13 12 12 13 12 7 6 6 6 5 4 2 1 -0 -2 -3 -4 -4 -5 -6 -6 -7 -8 -9 -9 -9 -10 -11 -11 -12 -12 -12 -12 -12 -12
14 14 15 14 14 15 14 14 14 13 12 11 10 10 7 5 5 5 5 3 2 0 -1 -2 -3 -4 -5 -5 -6 -7 -8 -8 -9 -9 -10 -11 -11 -12 -12 -12 -12 -12 -13 -13
13 12 15 14 11 12 12 13 13 12 12 12 11 8 7 5 6 5 4 3 1 -0 -2 -3 -4 -4 -5 -6 -6 -7 -8 -9 -9 -10 -10 -11 -12 -12 -12 -13 -13 -13 -13 -13
11 12 14 14 12 11 12 12 12 11 10 10 9 9 6 6 6 5 4 2 1 -1 -2 -3 -4 -5 -5 -6 -7 -8 -8 -9 -10 -10 -11 -11 -12 -12 -13 -13 -13 -13 -14 -14
10 11 13 14 14 11 12 12 11 10 9 10 11 10 5 6 5 5 3 1 -0 -2 -3 -4 -4 -5 -6 -6 -7 -8 -9 -9 -10 -10 -11 -12 -12 -13 -13 -13 -14 -14 -14 -14
10 11 13 13 13 12 11 10 11 10 9 9 10 9 7 5 5 4 2 1 -1 -2 -4 -4 -5 -5 -6 -7 -7 -8 -9 -9 -10 -10 -11 -12 -12 -13 -13 -14 -14 -14 -14 -14
10 10 12 12 13 11 9 9 9 9 9 9 9 8 5 6 5 4 1 -1 -2 -3 -4 -5 -5 -5 -6 -7 -8 -8 -9 -9 -10 -11 -12 -12 -13 -13 -14 -14 -14 -14 -14 -14
11 11 11 10 13 12 10 12 10 9 9 9 9 7 6 5 4 2 0 -2 -3 -4 -4 -5 -5 -6 -7 -7 -8 -9 -9 -9 -10 -11 -12 -12 -13 -13 -14 -14 -14 -14 -14 -14
10 10 10 9 10 10 12 8 10 10 10 10 9 7 6 4 3 1 -1 -2 -3 -4 -4 -5 -5 -6 -7 -8 -8 -8 -9 -10 -11 -11 -12 -12 -13 -13 -14 -14 -14 -14 -14 -14
8 9 10 8 8 9 10 8 8 8 8 9 8 7 5 4 2 -2 -2 -2 -3 -4 -4 -5 -6 -6 -7 -7 -8 -8 -9 -10 -11 -11 -12 -12 -13 -13 -13 -13 -14 -14 -14 -14
7 7 7 7 7 8 11 8 8 8 6 7 7 5 4 2 -0 -2 -2 -3 -3 -4 -4 -5 -6 -6 -7 -7 -8 -8 -9 -10 -11 -11 -12 -12 -13 -13 -13 -13 -13 -14 -14 -14
7 7 6 6 6 8 8 7 7 6 7 6 5 4 3 2 -0 -2 -3 -3 -3 -4 -4 -5 -6 -6 -7 -8 -8 -8 -9 -10 -11 -11 -12 -12 -13 -13 -13 -13 -13 -13 -14 -13
9 8 8 8 7 8 6 5 5 6 6 5 4 3 2 1 -1 -2 -3 -3 -3 -4 -5 -5 -6 -6 -7 -8 -8 -8 -9 -10 -10 -11 -12 -12 -13 -13 -13 -13 -13 -13 -14 -14
11 11 11 10 10 9 7 7 7 6 5 4 3 2 1 -0 -2 -3 -3 -3 -4 -4 -5 -5 -6 -6 -7 -7 -8 -8 -9 -9 -10 -11 -11 -12 -13 -13 -13 -13 -13 -13 -13 -13
11 11 9 8 9 9 8 7 5 5 5 4 3 2 1 -1 -2 -2 -3 -3 -4 -4 -5 -5 -6 -6 -7 -7 -8 -8 -9 -9 -9 -11 -11 -12 -12 -13 -13 -13 -13 -13 -13 -13
12 7 7 7 9 8 7 6 5 4 4 3 2 1 0 -1 -2 -2 -3 -3 -4 -4 -5 -5 -6 -6 -7 -7 -7 -8 -8 -9 -9 -10 -11 -12 -12 -13 -13 -13 -14 -13 -13 -13
10 9 7 9 11 8 7 6 4 4 3 3 2 1 -0 -1 -2 -2 -3 -3 -4 -5 -5 -5 -6 -6 -7 -7 -7 -8 -8 -8 -9 -10 -11 -12 -12 -13 -13 -13 -13 -14 -14 -14
Wind_Speed
5 6 7 7 6 7 6 6 5 5 3 3 4 8 9 7 5 1 4 5 5 7 8 9 9 10 10 11 12 12 13 13 14 11 12 12 13 12 14 20 24 25 25 25
6 6 6 4 3 5 4 5 3 5 4 3 3 7 10 8 5 4 4 5 5 7 8 9 9 9 9 10 11 11 12 12 12 11 10 9 10 9 14 19 22 23 25 25
8 4 5 4 8 8 3 5 5 3 5 4 3 7 12 10 6 6 5 2 6 9 9 9 8 9 9 9 10 12 11 11 13 17 13 12 7 9 9 11 9 21 25 24
7 3 4 4 7 7 4 6 6 4 2 4 7 3 8 10 8 8 4 4 8 8 8 8 8 9 9 9 9 9 10 10 12 15 11 13 11 11 13 11 10 19 23 23
5 6 7 6 4 5 5 3 5 6 4 4 6 5 5 9 8 7 5 7 7 7 8 8 8 8 8 8 8 9 10 9 11 13 10 11 11 10 10 11 12 10 17 20
5 2 4 4 3 3 6 7 6 4 3 5 4 6 4 3 6 7 7 7 7 8 8 8 8 7 7 7 7 8 9 10 9 9 9 11 12 13 14 14 12 12 10 13
6 5 3 3 6 2 5 6 3 3 4 4 2 2 5 7 11 8 5 6 7 8 8 8 8 8 8 8 8 8 10 10 10 10 10 11 11 11 12 13 12 13 12 11
1 4 4 5 5 4 6 5 4 5 6 6 4 3 6 9 8 4 3 6 8 8 7 8 8 8 7 8 9 9 10 10 11 11 11 9 9 9 9 11 12 12 11 11
7 3 4 2 4 5 7 5 2 4 6 6 1 7 6 7 6 3 5 7 8 8 8 8 8 7 7 8 8 9 10 11 11 11 11 10 9 10 10 10 9 8 11 16
6 3 5 4 3 1 3 4 4 4 5 6 9 3 5 8 4 4 6 7 8 7 7 8 7 7 7 7 8 9 9 10 10 11 11 14 10 10 10 9 12 11 14 18
5 5 3 4 2 1 2 3 2 4 4 3 6 1 5 8 4 3 5 7 7 7 7 7 7 7 8 8 8 8 9 9 10 10 10 11 11 10 11 9 11 12 14 16
4 4 3 3 4 4 3 4 4 4 5 3 5 1 7 7 4 3 5 7 7 8 7 7 8 8 8 9 9 9 9 10 10 10 10 11 11 10 12 12 12 16 14 15
6 4 4 2 1 0 4 4 2 3 3 4 4 2 8 7 4 5 6 8 8 8 8 8 8 8 9 9 9 10 10 10 11 11 11 11 11 12 12 13 13 16 14 12
3 4 4 5 4 1 4 4 6 5 4 5 6 3 4 5 5 6 8 9 8 8 8 8 8 8 9 9 10 10 10 10 11 11 11 11 11 11 13 13 13 15 14 12
2 4 6 9 7 4 6 7 7 9 8 7 8 7 4 6 5 7 9 8 8 7 8 8 9 9 10 10 10 10 10 10 11 11 11 10 10 11 12 14 14 13 13 14
2 4 4 6 3 3 7 10 10 9 9 9 10 6 7 4 6 8 9 8 7 7 8 8 9 10 10 11 11 11 10 10 11 11 10 10 10 11 12 14 14 15 14 13
3 3 4 5 2 5 8 5 10 6 7 6 4 2 4 4 6 6 8 7 6 6 7 8 9 9 10 10 10 11 11 12 11 10 10 10 10 12 13 15 14 13 12 12
2 2 3 5 8 6 4 3 1 5 5 6 3 3 5 5 6 9 9 7 6 6 6 7 8 8 9 8 9 10 11 11 11 10 10 11 11 12 12 12 12 11 9 10
4 3 3 2 5 9 3 4 3 3 5 5 5 5 6 7 4 6 7 6 5 5 5 5 6 7 8 9 10 10 11 11 11 12 12 12 12 11 12 11 11 10 9 9
2 3 2 2 3 6 3 6 4 3 5 5 6 6 6 4 2 2 4 5 5 5 4 5 7 7 8 9 9 10 12 12 12 13 13 13 12 11 11 11 10 9 9 10
3 4 4 5 7 10 3 7 7 4 5 8 7 7 6 3 3 6 6 5 5 5 5 6 7 7 8 9 9 10 11 12 12 13 13 12 11 11 11 10 9 9 10 10
8 6 6 5 6 10 8 9 8 6 6 7 8 7 7 8 9 7 6 5 5 5 6 7 7 8 8 8 9 10 11 11 12 13 13 12 12 12 12 10 8 8 9 9
7 6 5 7 9 3 9 7 5 8 8 7 7 8 8 8 8 7 5 4 4 5 5 6 7 8 8 8 8 10 11 11 12 13 12 12 13 10 9 9 8 8 7 7
6 3 1 7 7 6 9 7 8 7 8 9 9 9 8 8 9 7 4 3 3 4 5 5 7 8 8 9 9 9 10 11 12 13 11 11 11 10 9 10 9 7 7 7
5 8 5 8 4 6 8 9 8 9 11 12 9 7 8 9 8 6 4 3 2 3 4 5 6 7 8 9 9 9 9 10 11 12 10 11 12 10 9 10 10 11 7 9
7 9 8 8 6 8 8 12 12 12 11 12 11 8 8 8 9 7 5 3 2 2 4 5 6 7 8 9 9 9 8 10 11 11 10 9 9 9 9 8 9 17 17 18
Wind_Direction
28 51 35 9 356 322 340 353 69 113 120 271 223 150 161 171 198 151 55 28 27 48 43 41 37 36 23 14 6 358 357 353 353 353 346 343 340 336 333 341 344 340 341 340
95 52 358 328 316 309 343 335 70 133 132 264 220 191 167 173 178 78 10 341 355 36 30 26 26 32 23 15 4 354 356 350 353 351 342 337 330 327 331 338 335 337 339 338
79 37 318 1 20 345 340 21 356 340 133 244 260 234 176 167 154 154 227 280 28 31 25 16 19 26 20 17 4 353 350 347 349 349 342 338 327 330 335 336 333 338 338 336
75 23 326 47 40 349 23 34 326 284 224 228 175 273 166 165 178 195 192 60 41 38 24 18 23 22 18 17 3 349 345 344 347 348 342 341 340 337 335 333 330 335 335 333
79 18 10 33 21 346 337 340 287 275 242 272 193 245 128 151 191 181 104 56 40 35 28 29 27 20 17 15 1 347 343 343 344 346 341 339 334 332 330 330 330 331 331 333
110 95 35 357 296 259 290 264 233 250 244 264 199 186 153 181 160 106 64 38 29 26 30 31 21 16 15 11 358 346 343 342 342 343 339 338 335 334 333 334 333 332 330 332
144 124 95 335 308 217 313 323 300 260 226 220 97 223 95 80 75 75 50 26 32 26 28 22 12 11 9 0 353 347 345 341 342 342 341 336 334 332 331 333 330 331 332 332
212 130 53 26 18 328 323 345 16 318 311 316 215 138 113 107 102 100 55 45 33 26 29 24 15 14 4 354 350 348 345 341 341 341 338 331 331 330 328 328 327 328 329 326
357 77 138 68 6 339 342 33 21 282 278 276 234 98 134 136 154 109 43 41 32 30 32 22 11 9 359 353 351 347 344 339 339 339 335 329 330 327 326 325 324 326 327 328
333 314 132 137 220 179 351 337 315 300 324 308 296 115 170 169 133 41 22 37 31 34 31 16 8 4 357 354 348 346 342 337 335 336 335 334 327 325 327 326 328 328 327 328
332 307 176 192 238 52 213 228 267 276 247 269 295 328 100 118 102 23 27 47 39 37 31 14 6 358 353 353 349 343 340 338 336 334 331 327 326 328 331 329 328 327 325 328
29 322 284 106 67 27 328 326 334 302 304 283 282 293 126 137 154 78 52 57 52 48 33 16 6 354 351 350 347 344 340 340 336 332 330 328 329 330 331 329 329 328 324 328
357 302 283 275 167 219 233 204 248 305 292 267 269 314 162 179 134 68 60 64 52 41 24 11 1 351 350 347 345 343 342 340 333 333 330 328 329 330 329 329 328 324 322 325
332 288 269 289 328 28 271 201 194 217 241 256 257 357 177 146 69 49 61 65 51 34 18 5 355 349 347 344 343 339 340 333 332 331 325 324 326 327 326 326 323 320 321 323
290 283 287 287 279 232 252 263 248 220 232 254 282 338 47 99 59 53 64 60 39 20 10 2 351 345 343 342 338 336 331 328 328 321 318 318 321 322 323 323 321 322 325 325
234 284 297 286 219 213 257 239 237 248 243 251 276 303 107 74 54 52 67 57 31 13 4 355 347 343 342 337 332 330 326 327 321 316 316 319 324 325 325 325 328 329 326 323
198 284 293 285 282 263 273 253 196 209 209 224 257 126 109 49 39 54 84 67 34 16 359 348 342 339 332 326 326 329 330 323 319 319 322 326 325 325 327 331 330 326 325 326
316 267 268 296 338 273 246 16 36 211 230 216 225 107 104 73 58 87 84 70 39 18 356 342 334 326 318 321 328 328 324 320 323 330 334 332 328 324 326 327 326 324 324 323
339 301 296 335 297 278 228 180 173 201 269 199 184 137 101 64 63 91 73 71 52 23 1 337 326 318 325 328 327 328 325 326 334 340 339 333 327 326 328 330 328 328 325 323
295 300 279 174 248 262 251 127 92 75 262 149 138 132 107 74 304 160 103 78 56 25 358 341 333 333 329 321 326 332 330 336 342 340 336 329 328 330 331 332 331 330 331 332
189 202 214 217 238 267 145 132 123 167 246 141 133 125 120 128 141 133 116 82 51 26 1 355 342 332 320 321 335 334 334 339 337 335 331 331 333 332 333 333 330 332 338 338
189 196 216 202 229 260 149 149 189 205 127 131 124 121 121 116 116 118 108 88 51 20 2 355 339 325 321 333 342 335 336 333 335 334 334 335 335 337 344 335 333 336 342 346
211 207 216 212 224 179 163 181 158 134 142 131 123 121 125 129 131 124 117 98 60 24 359 346 331 322 328 341 346 336 330 336 338 336 337 338 337 338 340 341 340 341 346 352
218 122 237 277 259 189 182 133 139 145 132 121 124 128 132 132 129 127 122 96 59 20 354 340 331 330 332 340 340 330 331 340 338 336 339 342 341 342 344 350 350 347 347 354
225 158 218 254 243 131 177 157 145 117 113 113 114 122 133 131 134 140 142 112 67 10 345 336 331 327 328 331 332 331 342 343 338 335 341 344 344 340 345 352 353 356 353 6
205 186 197 233 213 182 194 164 144 140 141 140 134 129 131 137 142 148 155 130 84 355 339 337 331 328 324 326 330 335 346 343 338 340 345 344 343 345 348 347 351 1 5 9
Height
1564 1569 1578 1578 1575 1574 1571 1571 1577 1589 1593 1593 1593 1600 1606 1609 1611 1611 1612 1613 1613 1612 1611 1608 1605 1600 1595 1590 1585 1580 1574 1568 1563 1557 1551 1545 1540 1536 1531 1528 1523 1518 1513 1508
1571 1580 1580 1576 1574 1572 1571 1574 1578 1590 1592 1592 1593 1597 1602 1606 1609 1610 1612 1612 1612 1610 1609 1607 1604 1599 1594 1589 1584 1579 1573 1568 1563 1557 1552 1547 1541 1536 1531 1526 1521 1516 1511 1506
1580 1584 1580 1577 1577 1576 1573 1580 1584 1585 1592 1593 1594 1595 1598 1603 1606 1609 1611 1611 1610 1609 1608 1606 1602 1598 1594 1589 1583 1578 1572 1567 1562 1557 1551 1544 1539 1533 1527 1521 1516 1512 1508 1503
1582 1583 1580 1579 1583 1582 1580 1585 1585 1583 1592 1589 1595 1595 1595 1600 1604 1607 1608 1609 1609 1608 1607 1604 1601 1597 1593 1588 1582 1577 1572 1567 1561 1555 1549 1543 1537 1531 1526 1520 1515 1510 1505 1500
1587 1586 1584 1585 1586 1586 1584 1583 1584 1583 1587 1588 1590 1593 1593 1598 1602 1604 1606 1607 1608 1607 1605 1603 1600 1596 1592 1587 1581 1576 1571 1565 1560 1554 1548 1542 1537 1531 1525 1519 1513 1507 1502 1498
1587 1588 1588 1589 1586 1585 1584 1582 1582 1584 1588 1590 1574 1587 1588 1596 1597 1602 1605 1606 1607 1606 1604 1601 1599 1595 1591 1585 1580 1574 1569 1564 1558 1552 1547 1541 1535 1529 1523 1516 1510 1504 1499 1495
1587 1588 1589 1589 1585 1584 1584 1585 1587 1587 1589 1581 1572 1576 1595 1600 1600 1603 1606 1606 1606 1605 1602 1600 1597 1593 1588 1583 1578 1573 1567 1562 1556 1550 1545 1539 1534 1528 1522 1515 1509 1503 1497 1492
1582 1592 1592 1592 1593 1593 1586 1588 1600 1604 1590 1579 1571 1582 1603 1601 1603 1605 1605 1605 1604 1603 1601 1598 1595 1591 1586 1581 1576 1571 1566 1560 1554 1548 1542 1537 1531 1526 1520 1514 1509 1503 1497 1491
1591 1592 1594 1594 1593 1593 1591 1592 1594 1599 1590 1587 1572 1601 1604 1602 1603 1604 1604 1603 1603 1601 1600 1597 1594 1589 1585 1580 1575 1570 1564 1558 1552 1546 1540 1534 1529 1524 1518 1512 1507 1501 1495 1489
1596 1593 1592 1593 1594 1595 1593 1594 1596 1596 1600 1598 1578 1577 1595 1601 1601 1602 1602 1602 1601 1600 1598 1596 1592 1588 1584 1579 1574 1569 1563 1557 1551 1545 1538 1533 1527 1521 1516 1509 1504 1498 1492 1486
1597 1597 1593 1593 1592 1591 1593 1593 1592 1595 1596 1603 1598 1592 1594 1599 1601 1601 1601 1601 1600 1599 1597 1594 1590 1587 1582 1578 1572 1567 1561 1555 1549 1542 1536 1530 1524 1519 1513 1507 1501 1495 1489 1484
1599 1601 1594 1592 1595 1594 1594 1593 1595 1602 1596 1590 1595 1599 1597 1598 1599 1599 1600 1599 1598 1597 1595 1592 1589 1585 1580 1575 1570 1565 1559 1553 1547 1540 1534 1528 1522 1516 1510 1503 1498 1492 1487 1482
1602 1602 1599 1596 1599 1598 1595 1593 1595 1597 1601 1600 1600 1597 1597 1597 1597 1597 1597 1597 1597 1596 1593 1591 1587 1583 1578 1573 1568 1563 1557 1551 1545 1538 1532 1525 1519 1513 1507 1500 1494 1489 1484 1479
1605 1603 1601 1601 1594 1595 1593 1592 1594 1598 1602 1596 1587 1587 1597 1594 1595 1596 1595 1595 1595 1594 1592 1589 1585 1581 1577 1572 1566 1560 1555 1549 1542 1536 1530 1523 1517 1511 1504 1498 1492 1487 1482 1476
1605 1604 1594 1591 1588 1589 1592 1593 1592 1595 1594 1595 1586 1587 1589 1593 1594 1594 1594 1594 1594 1593 1591 1588 1584 1579 1575 1570 1564 1559 1552 1547 1540 1534 1528 1522 1516 1509 1502 1496 1490 1485 1480 1475
1604 1604 1597 1592 1585 1590 1591 1588 1589 1589 1589 1588 1586 1587 1590 1591 1592 1592 1593 1593 1593 1592 1590 1586 1583 1578 1573 1568 1562 1557 1551 1545 1538 1532 1527 1521 1514 1507 1501 1494 1489 1483 1478 1472
1602 1603 1600 1598 1584 1586 1585 1575 1581 1582 1581 1583 1584 1587 1588 1589 1591 1591 1592 1592 1592 1590 1588 1585 1581 1577 1572 1567 1562 1555 1550 1543 1537 1531 1525 1519 1512 1506 1500 1494 1488 1482 1477 1471
1603 1603 1603 1601 1598 1597 1575 1577 1575 1577 1577 1578 1580 1583 1586 1589 1590 1590 1590 1591 1590 1589 1587 1584 1580 1576 1571 1566 1561 1556 1549 1542 1536 1530 1524 1517 1511 1505 1499 1494 1488 1482 1477 1471
1604 1604 1603 1607 1606 1593 1578 1577 1578 1579 1578 1575 1578 1581 1585 1587 1589 1590 1590 1590 1589 1587 1585 1583 1579 1575 1570 1565 1560 1554 1548 1542 1535 1529 1522 1516 1510 1505 1499 1493 1488 1483 1477 1471
1606 1606 1609 1608 1611 1599 1574 1577 1577 1580 1581 1576 1577 1580 1583 1586 1589 1590 1589 1588 1587 1586 1584 1581 1578 1574 1569 1564 1559 1553 1547 1541 1535 1528 1522 1516 1511 1506 1500 1495 1489 1484 1478 1473
1606 1607 1609 1608 1607 1587 1576 1576 1579 1585 1576 1575 1577 1579 1582 1584 1586 1588 1587 1587 1586 1585 1583 1581 1577 1573 1568 1563 1559 1553 1547 1541 1535 1529 1523 1517 1512 1506 1501 1496 1490 1485 1479 1474
1595 1598 1598 1597 1599 1586 1574 1575 1577 1574 1571 1573 1576 1579 1581 1582 1583 1584 1585 1585 1585 1584 1582 1580 1576 1572 1568 1563 1558 1553 1547 1542 1536 1529 1523 1517 1512 1507 1502 1496 1491 1486 1480 1475
1580 1580 1579 1579 1576 1565 1565 1566 1567 1568 1570 1572 1575 1577 1579 1580 1581 1582 1583 1583 1583 1583 1581 1579 1575 1571 1567 1563 1559 1553 1548 1542 1535 1529 1523 1518 1512 1508 1502 1497 1491 1487 1482 1477
1573 1572 1574 1572 1563 1561 1562 1563 1565 1567 1568 1570 1573 1575 1576 1577 1579 1580 1581 1582 1582 1581 1580 1577 1574 1571 1567 1563 1559 1554 1548 1543 1536 1529 1524 1518 1513 1508 1503 1498 1493 1488 1483 1479
1566 1570 1571 1567 1560 1559 1560 1560 1562 1564 1566 1569 1571 1573 1574 1575 1577 1578 1580 1580 1581 1580 1578 1576 1573 1570 1567 1563 1559 1554 1549 1543 1537 1530 1525 1520 1515 1510 1504 1499 1495 1490 1486 1482
1559 1560 1563 1558 1551 1553 1553 1554 1557 1560 1563 1566 1569 1570 1572 1574 1575 1576 1578 1579 1579 1579 1577 1575 1572 1570 1566 1562 1558 1554 1549 1544 1537 1531 1526 1521 1516 1511 1506 1501 1496 1492 1488 1484